{"data":{"norad_id":66033,"intl_designator":"2025-233A","name":"QIANFAN-91","alt_names":[],"object_type":"PAYLOAD","status":"ACTIVE","operator":null,"country":"PRC","launch_date":"2025-10-17","launch_site_code":"TAISC","launch_vehicle":null,"mission":null,"orbit_class":"UNKNOWN","rcs_meters":null,"size_class":null,"mass_kg":null,"dimensions":null,"purposes":[],"wikipedia_slug":null,"has_3d_model":false,"image_url":null,"decayed_at":null,"tle_current":{"epoch":"2026-05-25T04:10:13.759968Z","epoch_age_seconds":55952,"freshness":"FRESH","line1":"1 66033U 25233A   26145.17377037  .00000126  00000+0  17686-3 0  9995","line2":"2 66033  89.0020  45.5147 0002100  67.7808 292.3565 13.51005647 30078","mean_motion":13.51005647,"eccentricity":0.00021,"inclination_deg":89.002,"raan_deg":45.5147,"arg_perigee_deg":67.7808,"mean_anomaly_deg":292.3565,"bstar":0.00017686,"rev_number":3007,"period_min":106.58726728475,"perigee_km":1066.9970279112,"apogee_km":1070.1246410017,"semimajor_km":7446.6978344564,"source":"CELESTRAK","updated_at":"2026-05-25T13:38:05.918493Z"}}}